Location: Arrodets-la-Barthe
(43.0306°N, 0.2829°E)
Time: 08:03:11
(UTC+00:00)

CUBEBUG 2 - Pass Details

Date: 02 April 2023
Orbit: 577 x 685 km, 97.8° (Epoch: 03 June)

Event Time Altitude Azimuth Distance (km) Brightness Sun altitude
Rises 03:41:31 0° 358° (N) 3,064 ? -21.3°
Reaches altitude 10° 03:44:15 10° 343° (NNW) 2,136 ? -20.9°
Enters shadow 03:47:04 20° 307° (NW) 1,559 ? -20.4°
